Location: Pasadena, ca
(34.1243°N, 118.1037°W)
Time: 11:27:01
(UTC-08:00)

N. Korean satellite - Pass Details

Date: 19 November 2017
Orbit: 460 x 515 km, 97.2° (Epoch: 18 November)

Event Time Altitude Azimuth Distance (km) Brightness Sun altitude
Rises 18:29:09 0° 190° (S) 2,475 10.4 -21.2°
Reaches altitude 10° 18:31:21 10° 202° (SSW) 1,610 9.6 -21.6°
Maximum altitude 18:34:23 28° 263° (W) 901 8.6 -22.3°
Drops below altitude 10° 18:37:28 10° 324° (NW) 1,641 9.5 -22.9°
Sets 18:39:44 0° 336° (NNW) 2,533 10.4 -23.4°
